Time,TemperatureF,DewpointF,PressureIn,WindDirection,WindDirectionDegrees,WindSpeedMPH,WindSpeedGustMPH,Humidity,HourlyPrecipIn,Conditions,Clouds,dailyrainin,SoftwareType,DateUTC
2013-08-07 00:01:00,62.4,51.7,-100.00,North,-999,-999.0,-999.0,68,-99.99,,---,-99.99,VWS V14.01,2013-08-07 07:01:00,
2013-08-07 00:06:00,62.4,51.7,-100.00,North,-999,-999.0,-999.0,68,-99.99,,---,-99.99,VWS V14.01,2013-08-07 07:06:00,
2013-08-07 00:12:00,62.4,51.7,-100.00,North,-999,-999.0,-999.0,68,-99.99,,---,-99.99,VWS V14.01,2013-08-07 07:12:00,
2013-08-07 00:17:00,62.4,51.7,-100.00,North,-999,-999.0,-999.0,68,-99.99,,---,-99.99,VWS V14.01,2013-08-07 07:17:00,
2013-08-07 00:22:00,62.4,51.7,-100.00,North,-999,-999.0,-999.0,68,-99.99,,---,-99.99,VWS V14.01,2013-08-07 07:22:00,
2013-08-07 00:27:00,62.4,51.7,-100.00,North,-999,-999.0,-999.0,68,-99.99,,---,-99.99,VWS V14.01,2013-08-07 07:27:00,
2013-08-07 00:32:00,62.2,51.6,-100.00,North,-999,-999.0,-999.0,68,-99.99,,---,-99.99,VWS V14.01,2013-08-07 07:32:00,
2013-08-07 00:37:00,62.2,52.0,-100.00,North,-999,-999.0,-999.0,69,-99.99,,---,-99.99,VWS V14.01,2013-08-07 07:37:00,
2013-08-07 00:42:00,62.2,52.0,-100.00,North,-999,-999.0,-999.0,69,-99.99,,---,-99.99,VWS V14.01,2013-08-07 07:42:00,
2013-08-07 00:47:00,62.2,52.0,-100.00,North,-999,-999.0,-999.0,69,-99.99,,---,-99.99,VWS V14.01,2013-08-07 07:47:00,
2013-08-07 00:52:00,62.2,52.0,-100.00,North,-999,-999.0,-999.0,69,-99.99,,---,-99.99,VWS V14.01,2013-08-07 07:52:00,
2013-08-07 00:57:00,62.2,52.0,-100.00,North,-999,-999.0,-999.0,69,-99.99,,---,-99.99,VWS V14.01,2013-08-07 07:57:00,
2013-08-07 01:02:00,62.2,52.0,-100.00,North,-999,-999.0,-999.0,69,-99.99,,---,-99.99,VWS V14.01,2013-08-07 08:02:00,
2013-08-07 01:11:00,62.2,52.0,-100.00,North,-999,-999.0,-999.0,69,-99.99,,---,-99.99,VWS V14.01,2013-08-07 08:11:00,
2013-08-07 01:16:00,62.2,52.0,-100.00,North,-999,-999.0,-999.0,69,-99.99,,---,-99.99,VWS V14.01,2013-08-07 08:16:00,
2013-08-07 01:21:00,62.2,52.0,-100.00,North,-999,-999.0,-999.0,69,-99.99,,---,-99.99,VWS V14.01,2013-08-07 08:21:00,
2013-08-07 01:26:00,62.1,51.8,-100.00,North,-999,-999.0,-999.0,69,-99.99,,---,-99.99,VWS V14.01,2013-08-07 08:26:00,
2013-08-07 01:31:00,62.1,51.8,-100.00,North,-999,-999.0,-999.0,69,-99.99,,---,-99.99,VWS V14.01,2013-08-07 08:31:00,
2013-08-07 01:36:00,62.1,51.8,-100.00,North,-999,-999.0,-999.0,69,-99.99,,---,-99.99,VWS V14.01,2013-08-07 08:36:00,
2013-08-07 01:41:00,62.2,52.0,-100.00,North,-999,-999.0,-999.0,69,-99.99,,---,-99.99,VWS V14.01,2013-08-07 08:41:00,
2013-08-07 01:46:00,62.1,51.8,-100.00,North,-999,-999.0,-999.0,69,-99.99,,---,-99.99,VWS V14.01,2013-08-07 08:46:00,
2013-08-07 01:51:00,62.1,51.8,-100.00,North,-999,-999.0,-999.0,69,-99.99,,---,-99.99,VWS V14.01,2013-08-07 08:51:00,
2013-08-07 01:56:00,61.9,51.6,-100.00,North,-999,-999.0,-999.0,69,-99.99,,---,-99.99,VWS V14.01,2013-08-07 08:56:00,
2013-08-07 02:01:00,61.9,51.6,-100.00,North,-999,-999.0,-999.0,69,-99.99,,---,-99.99,VWS V14.01,2013-08-07 09:01:00,
2013-08-07 02:11:00,61.9,52.0,-100.00,North,-999,-999.0,-999.0,70,-99.99,,---,-99.99,VWS V14.01,2013-08-07 09:11:00,
2013-08-07 02:16:00,61.9,52.0,-100.00,North,-999,-999.0,-999.0,70,-99.99,,---,-99.99,VWS V14.01,2013-08-07 09:16:00,
2013-08-07 02:21:00,61.9,52.0,-100.00,North,-999,-999.0,-999.0,70,-99.99,,---,-99.99,VWS V14.01,2013-08-07 09:21:00,
2013-08-07 02:26:00,61.9,52.0,-100.00,North,-999,-999.0,-999.0,70,-99.99,,---,-99.99,VWS V14.01,2013-08-07 09:26:00,
2013-08-07 02:31:00,61.9,52.0,-100.00,North,-999,-999.0,-999.0,70,-99.99,,---,-99.99,VWS V14.01,2013-08-07 09:31:00,
2013-08-07 02:36:00,61.9,52.0,-100.00,North,-999,-999.0,-999.0,70,-99.99,,---,-99.99,VWS V14.01,2013-08-07 09:36:00,
2013-08-07 02:41:00,61.9,52.0,-100.00,North,-999,-999.0,-999.0,70,-99.99,,---,-99.99,VWS V14.01,2013-08-07 09:41:00,
2013-08-07 02:46:00,61.9,52.0,-100.00,North,-999,-999.0,-999.0,70,-99.99,,---,-99.99,VWS V14.01,2013-08-07 09:46:00,
2013-08-07 02:51:00,61.9,52.0,-100.00,North,-999,-999.0,-999.0,70,-99.99,,---,-99.99,VWS V14.01,2013-08-07 09:51:00,
2013-08-07 02:56:00,61.9,52.0,-100.00,North,-999,-999.0,-999.0,70,-99.99,,---,-99.99,VWS V14.01,2013-08-07 09:56:00,
2013-08-07 03:01:00,62.1,52.2,-100.00,North,-999,-999.0,-999.0,70,-99.99,,---,-99.99,VWS V14.01,2013-08-07 10:01:00,
2013-08-07 03:06:00,61.9,52.0,-100.00,North,-999,-999.0,-999.0,70,-99.99,,---,-99.99,VWS V14.01,2013-08-07 10:06:00,
2013-08-07 03:11:00,61.9,52.0,-100.00,North,-999,-999.0,-999.0,70,-99.99,,---,-99.99,VWS V14.01,2013-08-07 10:11:00,
2013-08-07 03:16:00,61.9,52.0,-100.00,North,-999,-999.0,-999.0,70,-99.99,,---,-99.99,VWS V14.01,2013-08-07 10:16:00,
2013-08-07 03:21:00,61.9,52.0,-100.00,North,-999,-999.0,-999.0,70,-99.99,,---,-99.99,VWS V14.01,2013-08-07 10:21:00,
2013-08-07 03:26:00,61.9,52.0,-100.00,North,-999,-999.0,-999.0,70,-99.99,,---,-99.99,VWS V14.01,2013-08-07 10:26:00,
2013-08-07 03:31:00,61.9,52.0,-100.00,North,-999,-999.0,-999.0,70,-99.99,,---,-99.99,VWS V14.01,2013-08-07 10:31:00,
2013-08-07 03:36:00,61.7,51.8,-100.00,North,-999,-999.0,-999.0,70,-99.99,,---,-99.99,VWS V14.01,2013-08-07 10:36:00,
2013-08-07 03:41:00,61.5,52.0,-100.00,North,-999,-999.0,-999.0,71,-99.99,,---,-99.99,VWS V14.01,2013-08-07 10:41:00,
2013-08-07 03:46:00,61.3,51.9,-100.00,North,-999,-999.0,-999.0,71,-99.99,,---,-99.99,VWS V14.01,2013-08-07 10:46:00,
2013-08-07 03:51:00,61.2,51.7,-100.00,North,-999,-999.0,-999.0,71,-99.99,,---,-99.99,VWS V14.01,2013-08-07 10:51:00,
2013-08-07 03:56:00,61.0,51.9,-100.00,North,-999,-999.0,-999.0,72,-99.99,,---,-99.99,VWS V14.01,2013-08-07 10:56:00,
2013-08-07 04:01:00,61.0,51.9,-100.00,North,-999,-999.0,-999.0,72,-99.99,,---,-99.99,VWS V14.01,2013-08-07 11:01:00,
2013-08-07 04:06:00,60.8,51.7,-100.00,North,-999,-999.0,-999.0,72,-99.99,,---,-99.99,VWS V14.01,2013-08-07 11:06:00,
2013-08-07 04:11:00,60.8,51.7,-100.00,North,-999,-999.0,-999.0,72,-99.99,,---,-99.99,VWS V14.01,2013-08-07 11:11:00,
2013-08-07 04:16:00,60.6,51.9,-100.00,North,-999,-999.0,-999.0,73,-99.99,,---,-99.99,VWS V14.01,2013-08-07 11:16:00,
2013-08-07 04:21:00,60.6,51.9,-100.00,North,-999,-999.0,-999.0,73,-99.99,,---,-99.99,VWS V14.01,2013-08-07 11:21:00,
2013-08-07 04:26:00,60.4,51.8,-100.00,North,-999,-999.0,-999.0,73,-99.99,,---,-99.99,VWS V14.01,2013-08-07 11:26:00,
2013-08-07 04:31:00,60.4,51.8,-100.00,North,-999,-999.0,-999.0,73,-99.99,,---,-99.99,VWS V14.01,2013-08-07 11:31:00,
2013-08-07 04:36:00,60.4,51.8,-100.00,North,-999,-999.0,-999.0,73,-99.99,,---,-99.99,VWS V14.01,2013-08-07 11:36:00,
2013-08-07 04:41:00,60.4,51.8,-100.00,North,-999,-999.0,-999.0,73,-99.99,,---,-99.99,VWS V14.01,2013-08-07 11:41:00,
2013-08-07 04:46:00,60.4,51.8,-100.00,North,-999,-999.0,-999.0,73,-99.99,,---,-99.99,VWS V14.01,2013-08-07 11:46:00,
2013-08-07 04:51:00,60.4,51.8,-100.00,North,-999,-999.0,-999.0,73,-99.99,,---,-99.99,VWS V14.01,2013-08-07 11:51:00,
2013-08-07 04:56:00,60.3,51.6,-100.00,North,-999,-999.0,-999.0,73,-99.99,,---,-99.99,VWS V14.01,2013-08-07 11:56:00,
2013-08-07 05:01:00,60.3,51.6,-100.00,North,-999,-999.0,-999.0,73,-99.99,,---,-99.99,VWS V14.01,2013-08-07 12:01:00,
2013-08-07 05:06:00,60.3,51.6,-100.00,North,-999,-999.0,-999.0,73,-99.99,,---,-99.99,VWS V14.01,2013-08-07 12:06:00,
2013-08-07 05:11:00,60.3,51.6,-100.00,North,-999,-999.0,-999.0,73,-99.99,,---,-99.99,VWS V14.01,2013-08-07 12:11:00,
2013-08-07 05:16:00,60.1,51.4,-100.00,North,-999,-999.0,-999.0,73,-99.99,,---,-99.99,VWS V14.01,2013-08-07 12:16:00,
2013-08-07 05:21:00,60.3,51.6,-100.00,North,-999,-999.0,-999.0,73,-99.99,,---,-99.99,VWS V14.01,2013-08-07 12:21:00,
2013-08-07 05:26:00,60.3,51.6,-100.00,North,-999,-999.0,-999.0,73,-99.99,,---,-99.99,VWS V14.01,2013-08-07 12:26:00,
2013-08-07 05:31:00,60.1,51.4,-100.00,North,-999,-999.0,-999.0,73,-99.99,,---,-99.99,VWS V14.01,2013-08-07 12:31:00,
2013-08-07 05:36:00,60.1,51.4,-100.00,North,-999,-999.0,-999.0,73,-99.99,,---,-99.99,VWS V14.01,2013-08-07 12:36:00,
2013-08-07 05:41:00,60.1,51.4,-100.00,North,-999,-999.0,-999.0,73,-99.99,,---,-99.99,VWS V14.01,2013-08-07 12:41:00,
2013-08-07 05:47:00,60.3,51.6,-100.00,North,-999,-999.0,-999.0,73,-99.99,,---,-99.99,VWS V14.01,2013-08-07 12:47:00,
2013-08-07 05:52:00,60.3,51.6,-100.00,North,-999,-999.0,-999.0,73,-99.99,,---,-99.99,VWS V14.01,2013-08-07 12:52:00,
2013-08-07 05:57:00,60.3,51.6,-100.00,North,-999,-999.0,-999.0,73,-99.99,,---,-99.99,VWS V14.01,2013-08-07 12:57:00,
2013-08-07 06:02:00,60.3,51.6,-100.00,North,-999,-999.0,-999.0,73,-99.99,,---,-99.99,VWS V14.01,2013-08-07 13:02:00,
2013-08-07 06:07:00,60.1,51.4,-100.00,North,-999,-999.0,-999.0,73,-99.99,,---,-99.99,VWS V14.01,2013-08-07 13:07:00,
2013-08-07 06:12:00,60.3,51.6,-100.00,North,-999,-999.0,-999.0,73,-99.99,,---,-99.99,VWS V14.01,2013-08-07 13:12:00,
2013-08-07 06:17:00,60.3,51.6,-100.00,North,-999,-999.0,-999.0,73,-99.99,,---,-99.99,VWS V14.01,2013-08-07 13:17:00,
2013-08-07 06:22:00,60.1,51.4,-100.00,North,-999,-999.0,-999.0,73,-99.99,,---,-99.99,VWS V14.01,2013-08-07 13:22:00,
2013-08-07 06:27:00,60.1,51.4,-100.00,North,-999,-999.0,-999.0,73,-99.99,,---,-99.99,VWS V14.01,2013-08-07 13:27:00,
2013-08-07 06:32:00,60.1,51.4,-100.00,North,-999,-999.0,-999.0,73,-99.99,,---,-99.99,VWS V14.01,2013-08-07 13:32:00,
2013-08-07 06:37:00,60.1,51.4,-100.00,North,-999,-999.0,-999.0,73,-99.99,,---,-99.99,VWS V14.01,2013-08-07 13:37:00,
2013-08-07 06:42:00,60.1,51.4,-100.00,North,-999,-999.0,-999.0,73,-99.99,,---,-99.99,VWS V14.01,2013-08-07 13:42:00,
2013-08-07 06:47:00,60.1,51.4,-100.00,North,-999,-999.0,-999.0,73,-99.99,,---,-99.99,VWS V14.01,2013-08-07 13:47:00,
2013-08-07 06:52:00,60.1,51.4,-100.00,North,-999,-999.0,-999.0,73,-99.99,,---,-99.99,VWS V14.01,2013-08-07 13:52:00,
2013-08-07 06:57:00,60.1,51.4,-100.00,North,-999,-999.0,-999.0,73,-99.99,,---,-99.99,VWS V14.01,2013-08-07 13:57:00,
2013-08-07 07:02:00,60.1,51.4,-100.00,North,-999,-999.0,-999.0,73,-99.99,,---,-99.99,VWS V14.01,2013-08-07 14:02:00,
2013-08-07 07:07:00,60.1,51.4,-100.00,North,-999,-999.0,-999.0,73,-99.99,,---,-99.99,VWS V14.01,2013-08-07 14:07:00,
2013-08-07 07:12:00,60.1,51.4,-100.00,North,-999,-999.0,-999.0,73,-99.99,,---,-99.99,VWS V14.01,2013-08-07 14:12:00,
2013-08-07 07:17:00,60.1,51.4,-100.00,North,-999,-999.0,-999.0,73,-99.99,,---,-99.99,VWS V14.01,2013-08-07 14:17:00,
2013-08-07 07:22:00,60.1,51.4,-100.00,North,-999,-999.0,-999.0,73,-99.99,,---,-99.99,VWS V14.01,2013-08-07 14:22:00,
2013-08-07 07:27:00,60.1,51.4,-100.00,North,-999,-999.0,-999.0,73,-99.99,,---,-99.99,VWS V14.01,2013-08-07 14:27:00,
2013-08-07 07:32:00,60.1,51.8,-100.00,North,-999,-999.0,-999.0,74,-99.99,,---,-99.99,VWS V14.01,2013-08-07 14:32:00,
2013-08-07 07:37:00,60.1,51.8,-100.00,North,-999,-999.0,-999.0,74,-99.99,,---,-99.99,VWS V14.01,2013-08-07 14:37:00,
2013-08-07 07:42:00,60.3,52.0,-100.00,North,-999,-999.0,-999.0,74,-99.99,,---,-99.99,VWS V14.01,2013-08-07 14:42:00,
2013-08-07 07:47:00,60.4,52.1,-100.00,North,-999,-999.0,-999.0,74,-99.99,,---,-99.99,VWS V14.01,2013-08-07 14:47:00,
2013-08-07 07:52:00,60.4,52.1,-100.00,North,-999,-999.0,-999.0,74,-99.99,,---,-99.99,VWS V14.01,2013-08-07 14:52:00,
2013-08-07 07:57:00,60.4,52.1,-100.00,North,-999,-999.0,-999.0,74,-99.99,,---,-99.99,VWS V14.01,2013-08-07 14:57:00,
2013-08-07 08:02:00,60.4,52.1,-100.00,North,-999,-999.0,-999.0,74,-99.99,,---,-99.99,VWS V14.01,2013-08-07 15:02:00,
2013-08-07 08:07:00,60.6,52.3,-100.00,North,-999,-999.0,-999.0,74,-99.99,,---,-99.99,VWS V14.01,2013-08-07 15:07:00,
2013-08-07 08:12:00,60.6,52.3,-100.00,North,-999,-999.0,-999.0,74,-99.99,,---,-99.99,VWS V14.01,2013-08-07 15:12:00,
2013-08-07 08:17:00,60.8,52.1,-100.00,North,-999,-999.0,-999.0,73,-99.99,,---,-99.99,VWS V14.01,2013-08-07 15:17:00,
2013-08-07 08:22:00,61.0,52.3,-100.00,North,-999,-999.0,-999.0,73,-99.99,,---,-99.99,VWS V14.01,2013-08-07 15:22:00,
2013-08-07 08:27:00,61.2,52.5,-100.00,North,-999,-999.0,-999.0,73,-99.99,,---,-99.99,VWS V14.01,2013-08-07 15:27:00,
2013-08-07 08:32:00,61.3,52.6,-100.00,North,-999,-999.0,-999.0,73,-99.99,,---,-99.99,VWS V14.01,2013-08-07 15:32:00,
2013-08-07 08:37:00,61.5,52.8,-100.00,North,-999,-999.0,-999.0,73,-99.99,,---,-99.99,VWS V14.01,2013-08-07 15:37:00,
2013-08-07 08:42:00,61.7,53.0,-100.00,North,-999,-999.0,-999.0,73,-99.99,,---,-99.99,VWS V14.01,2013-08-07 15:42:00,
2013-08-07 08:47:00,61.9,53.1,-100.00,North,-999,-999.0,-999.0,73,-99.99,,---,-99.99,VWS V14.01,2013-08-07 15:47:00,
2013-08-07 08:52:00,62.2,53.1,-100.00,North,-999,-999.0,-999.0,72,-99.99,,---,-99.99,VWS V14.01,2013-08-07 15:52:00,
2013-08-07 08:57:00,62.2,53.1,-100.00,North,-999,-999.0,-999.0,72,-99.99,,---,-99.99,VWS V14.01,2013-08-07 15:57:00,
2013-08-07 09:02:00,62.4,53.3,-100.00,North,-999,-999.0,-999.0,72,-99.99,,---,-99.99,VWS V14.01,2013-08-07 16:02:00,
2013-08-07 09:11:00,63.0,53.4,-100.00,North,-999,-999.0,-999.0,71,-99.99,,---,-99.99,VWS V14.01,2013-08-07 16:11:00,
2013-08-07 09:16:00,63.1,53.6,-100.00,North,-999,-999.0,-999.0,71,-99.99,,---,-99.99,VWS V14.01,2013-08-07 16:16:00,
2013-08-07 09:22:00,63.5,53.9,-100.00,North,-999,-999.0,-999.0,71,-99.99,,---,-99.99,VWS V14.01,2013-08-07 16:22:00,
2013-08-07 09:28:00,64.0,54.5,-100.00,North,-999,-999.0,-999.0,71,-99.99,,---,-99.99,VWS V14.01,2013-08-07 16:28:00,
2013-08-07 09:34:00,64.2,54.2,-100.00,North,-999,-999.0,-999.0,70,-99.99,,---,-99.99,VWS V14.01,2013-08-07 16:34:00,
2013-08-07 09:39:00,64.4,54.4,-100.00,North,-999,-999.0,-999.0,70,-99.99,,---,-99.99,VWS V14.01,2013-08-07 16:39:00,
2013-08-07 09:44:00,65.1,55.1,-100.00,North,-999,-999.0,-999.0,70,-99.99,,---,-99.99,VWS V14.01,2013-08-07 16:44:00,
2013-08-07 09:49:00,65.7,55.2,-100.00,North,-999,-999.0,-999.0,69,-99.99,,---,-99.99,VWS V14.01,2013-08-07 16:49:00,
2013-08-07 09:55:00,66.4,55.5,-100.00,North,-999,-999.0,-999.0,68,-99.99,,---,-99.99,VWS V14.01,2013-08-07 16:55:00,
2013-08-07 10:00:00,66.7,55.8,-100.00,North,-999,-999.0,-999.0,68,-99.99,,---,-99.99,VWS V14.01,2013-08-07 17:00:00,
2013-08-07 10:06:00,67.3,56.4,-100.00,North,-999,-999.0,-999.0,68,-99.99,,---,-99.99,VWS V14.01,2013-08-07 17:06:00,
2013-08-07 10:11:00,67.6,56.3,-100.00,North,-999,-999.0,-999.0,67,-99.99,,---,-99.99,VWS V14.01,2013-08-07 17:11:00,
2013-08-07 10:16:00,68.2,56.4,-100.00,North,-999,-999.0,-999.0,66,-99.99,,---,-99.99,VWS V14.01,2013-08-07 17:16:00,
2013-08-07 10:21:00,68.4,56.6,-100.00,North,-999,-999.0,-999.0,66,-99.99,,---,-99.99,VWS V14.01,2013-08-07 17:21:00,
2013-08-07 10:26:00,68.7,56.5,-100.00,North,-999,-999.0,-999.0,65,-99.99,,---,-99.99,VWS V14.01,2013-08-07 17:26:00,
2013-08-07 10:31:00,69.1,56.8,-100.00,North,-999,-999.0,-999.0,65,-99.99,,---,-99.99,VWS V14.01,2013-08-07 17:31:00,
2013-08-07 10:36:00,69.4,57.2,-100.00,North,-999,-999.0,-999.0,65,-99.99,,---,-99.99,VWS V14.01,2013-08-07 17:36:00,
2013-08-07 10:41:00,69.8,57.1,-100.00,North,-999,-999.0,-999.0,64,-99.99,,---,-99.99,VWS V14.01,2013-08-07 17:41:00,
2013-08-07 10:46:00,70.2,57.4,-100.00,North,-999,-999.0,-999.0,64,-99.99,,---,-99.99,VWS V14.01,2013-08-07 17:46:00,
2013-08-07 10:51:00,70.5,57.3,-100.00,North,-999,-999.0,-999.0,63,-99.99,,---,-99.99,VWS V14.01,2013-08-07 17:51:00,
2013-08-07 10:56:00,70.7,57.5,-100.00,North,-999,-999.0,-999.0,63,-99.99,,---,-99.99,VWS V14.01,2013-08-07 17:56:00,
2013-08-07 11:01:00,70.9,57.7,-100.00,North,-999,-999.0,-999.0,63,-99.99,,---,-99.99,VWS V14.01,2013-08-07 18:01:00,
2013-08-07 11:06:00,71.2,57.6,-100.00,North,-999,-999.0,-999.0,62,-99.99,,---,-99.99,VWS V14.01,2013-08-07 18:06:00,
2013-08-07 11:11:00,71.6,57.5,-100.00,North,-999,-999.0,-999.0,61,-99.99,,---,-99.99,VWS V14.01,2013-08-07 18:11:00,
2013-08-07 11:16:00,71.8,57.6,-100.00,North,-999,-999.0,-999.0,61,-99.99,,---,-99.99,VWS V14.01,2013-08-07 18:16:00,
2013-08-07 11:21:00,72.0,57.3,-100.00,North,-999,-999.0,-999.0,60,-99.99,,---,-99.99,VWS V14.01,2013-08-07 18:21:00,
2013-08-07 11:26:00,72.0,57.3,-100.00,North,-999,-999.0,-999.0,60,-99.99,,---,-99.99,VWS V14.01,2013-08-07 18:26:00,
2013-08-07 11:31:00,72.0,57.3,-100.00,North,-999,-999.0,-999.0,60,-99.99,,---,-99.99,VWS V14.01,2013-08-07 18:31:00,
2013-08-07 11:36:00,72.1,57.5,-100.00,North,-999,-999.0,-999.0,60,-99.99,,---,-99.99,VWS V14.01,2013-08-07 18:36:00,
2013-08-07 11:42:00,72.5,57.4,-100.00,North,-999,-999.0,-999.0,59,-99.99,,---,-99.99,VWS V14.01,2013-08-07 18:42:00,
2013-08-07 11:47:00,72.9,57.7,-100.00,North,-999,-999.0,-999.0,59,-99.99,,---,-99.99,VWS V14.01,2013-08-07 18:47:00,
2013-08-07 11:52:00,73.0,57.9,-100.00,North,-999,-999.0,-999.0,59,-99.99,,---,-99.99,VWS V14.01,2013-08-07 18:52:00,
2013-08-07 11:57:00,73.2,57.6,-100.00,North,-999,-999.0,-999.0,58,-99.99,,---,-99.99,VWS V14.01,2013-08-07 18:57:00,
2013-08-07 12:02:00,73.2,57.6,-100.00,North,-999,-999.0,-999.0,58,-99.99,,---,-99.99,VWS V14.01,2013-08-07 19:02:00,
2013-08-07 12:07:00,73.6,57.4,-100.00,North,-999,-999.0,-999.0,57,-99.99,,---,-99.99,VWS V14.01,2013-08-07 19:07:00,
2013-08-07 12:12:00,73.8,57.6,-100.00,North,-999,-999.0,-999.0,57,-99.99,,---,-99.99,VWS V14.01,2013-08-07 19:12:00,
2013-08-07 12:17:00,73.9,57.3,-100.00,North,-999,-999.0,-999.0,56,-99.99,,---,-99.99,VWS V14.01,2013-08-07 19:17:00,
2013-08-07 12:23:00,73.9,57.3,-100.00,North,-999,-999.0,-999.0,56,-99.99,,---,-99.99,VWS V14.01,2013-08-07 19:23:00,
2013-08-07 12:28:00,74.1,57.4,-100.00,North,-999,-999.0,-999.0,56,-99.99,,---,-99.99,VWS V14.01,2013-08-07 19:28:00,
2013-08-07 12:34:00,74.5,57.8,-100.00,North,-999,-999.0,-999.0,56,-99.99,,---,-99.99,VWS V14.01,2013-08-07 19:34:00,
2013-08-07 12:40:00,74.7,57.9,-100.00,North,-999,-999.0,-999.0,56,-99.99,,---,-99.99,VWS V14.01,2013-08-07 19:40:00,
2013-08-07 12:45:00,74.7,57.4,-100.00,North,-999,-999.0,-999.0,55,-99.99,,---,-99.99,VWS V14.01,2013-08-07 19:45:00,
2013-08-07 12:51:00,74.8,57.6,-100.00,North,-999,-999.0,-999.0,55,-99.99,,---,-99.99,VWS V14.01,2013-08-07 19:51:00,
2013-08-07 12:56:00,74.7,57.4,-100.00,North,-999,-999.0,-999.0,55,-99.99,,---,-99.99,VWS V14.01,2013-08-07 19:56:00,
2013-08-07 13:02:00,74.8,57.1,-100.00,North,-999,-999.0,-999.0,54,-99.99,,---,-99.99,VWS V14.01,2013-08-07 20:02:00,
2013-08-07 13:07:00,75.0,57.3,-100.00,North,-999,-999.0,-999.0,54,-99.99,,---,-99.99,VWS V14.01,2013-08-07 20:07:00,
2013-08-07 13:12:00,75.2,56.9,-100.00,North,-999,-999.0,-999.0,53,-99.99,,---,-99.99,VWS V14.01,2013-08-07 20:12:00,
2013-08-07 13:17:00,75.4,57.1,-100.00,North,-999,-999.0,-999.0,53,-99.99,,---,-99.99,VWS V14.01,2013-08-07 20:17:00,
2013-08-07 13:22:00,75.4,57.1,-100.00,North,-999,-999.0,-999.0,53,-99.99,,---,-99.99,VWS V14.01,2013-08-07 20:22:00,
2013-08-07 13:27:00,75.4,57.1,-100.00,North,-999,-999.0,-999.0,53,-99.99,,---,-99.99,VWS V14.01,2013-08-07 20:27:00,
2013-08-07 13:32:00,75.6,56.7,-100.00,North,-999,-999.0,-999.0,52,-99.99,,---,-99.99,VWS V14.01,2013-08-07 20:32:00,
2013-08-07 13:37:00,75.6,57.2,-100.00,North,-999,-999.0,-999.0,53,-99.99,,---,-99.99,VWS V14.01,2013-08-07 20:37:00,
2013-08-07 13:42:00,75.7,57.4,-100.00,North,-999,-999.0,-999.0,53,-99.99,,---,-99.99,VWS V14.01,2013-08-07 20:42:00,
2013-08-07 13:47:00,75.6,56.7,-100.00,North,-999,-999.0,-999.0,52,-99.99,,---,-99.99,VWS V14.01,2013-08-07 20:47:00,
2013-08-07 13:52:00,75.6,56.7,-100.00,North,-999,-999.0,-999.0,52,-99.99,,---,-99.99,VWS V14.01,2013-08-07 20:52:00,
2013-08-07 13:57:00,75.9,57.0,-100.00,North,-999,-999.0,-999.0,52,-99.99,,---,-99.99,VWS V14.01,2013-08-07 20:57:00,
2013-08-07 14:02:00,75.9,57.0,-100.00,North,-999,-999.0,-999.0,52,-99.99,,---,-99.99,VWS V14.01,2013-08-07 21:02:00,
2013-08-07 14:07:00,75.9,57.0,-100.00,North,-999,-999.0,-999.0,52,-99.99,,---,-99.99,VWS V14.01,2013-08-07 21:07:00,
2013-08-07 14:12:00,75.9,56.5,-100.00,North,-999,-999.0,-999.0,51,-99.99,,---,-99.99,VWS V14.01,2013-08-07 21:12:00,
2013-08-07 14:17:00,75.7,56.3,-100.00,North,-999,-999.0,-999.0,51,-99.99,,---,-99.99,VWS V14.01,2013-08-07 21:17:00,
2013-08-07 14:22:00,75.6,56.2,-100.00,North,-999,-999.0,-999.0,51,-99.99,,---,-99.99,VWS V14.01,2013-08-07 21:22:00,
2013-08-07 14:27:00,75.7,56.3,-100.00,North,-999,-999.0,-999.0,51,-99.99,,---,-99.99,VWS V14.01,2013-08-07 21:27:00,
2013-08-07 14:32:00,75.9,56.5,-100.00,North,-999,-999.0,-999.0,51,-99.99,,---,-99.99,VWS V14.01,2013-08-07 21:32:00,
2013-08-07 14:37:00,76.1,56.7,-100.00,North,-999,-999.0,-999.0,51,-99.99,,---,-99.99,VWS V14.01,2013-08-07 21:37:00,
2013-08-07 14:42:00,75.9,56.0,-100.00,North,-999,-999.0,-999.0,50,-99.99,,---,-99.99,VWS V14.01,2013-08-07 21:42:00,
2013-08-07 14:47:00,75.7,55.8,-100.00,North,-999,-999.0,-999.0,50,-99.99,,---,-99.99,VWS V14.01,2013-08-07 21:47:00,
2013-08-07 14:52:00,75.9,56.0,-100.00,North,-999,-999.0,-999.0,50,-99.99,,---,-99.99,VWS V14.01,2013-08-07 21:52:00,
2013-08-07 14:57:00,75.7,56.3,-100.00,North,-999,-999.0,-999.0,51,-99.99,,---,-99.99,VWS V14.01,2013-08-07 21:57:00,
2013-08-07 15:02:00,75.9,56.0,-100.00,North,-999,-999.0,-999.0,50,-99.99,,---,-99.99,VWS V14.01,2013-08-07 22:02:00,
2013-08-07 15:11:00,75.6,55.6,-100.00,North,-999,-999.0,-999.0,50,-99.99,,---,-99.99,VWS V14.01,2013-08-07 22:11:00,
2013-08-07 15:16:00,75.6,55.6,-100.00,North,-999,-999.0,-999.0,50,-99.99,,---,-99.99,VWS V14.01,2013-08-07 22:16:00,
2013-08-07 15:21:00,75.7,55.8,-100.00,North,-999,-999.0,-999.0,50,-99.99,,---,-99.99,VWS V14.01,2013-08-07 22:21:00,
2013-08-07 15:26:00,75.7,55.8,-100.00,North,-999,-999.0,-999.0,50,-99.99,,---,-99.99,VWS V14.01,2013-08-07 22:26:00,
2013-08-07 15:31:00,75.6,55.6,-100.00,North,-999,-999.0,-999.0,50,-99.99,,---,-99.99,VWS V14.01,2013-08-07 22:31:00,
2013-08-07 15:36:00,75.4,55.5,-100.00,North,-999,-999.0,-999.0,50,-99.99,,---,-99.99,VWS V14.01,2013-08-07 22:36:00,
2013-08-07 15:41:00,75.4,55.5,-100.00,North,-999,-999.0,-999.0,50,-99.99,,---,-99.99,VWS V14.01,2013-08-07 22:41:00,
2013-08-07 15:46:00,75.6,55.6,-100.00,North,-999,-999.0,-999.0,50,-99.99,,---,-99.99,VWS V14.01,2013-08-07 22:46:00,
2013-08-07 15:51:00,75.4,55.5,-100.00,North,-999,-999.0,-999.0,50,-99.99,,---,-99.99,VWS V14.01,2013-08-07 22:51:00,
2013-08-07 15:56:00,75.4,55.5,-100.00,North,-999,-999.0,-999.0,50,-99.99,,---,-99.99,VWS V14.01,2013-08-07 22:56:00,
2013-08-07 16:01:00,75.4,55.5,-100.00,North,-999,-999.0,-999.0,50,-99.99,,---,-99.99,VWS V14.01,2013-08-07 23:01:00,
2013-08-07 16:06:00,75.2,54.8,-100.00,North,-999,-999.0,-999.0,49,-99.99,,---,-99.99,VWS V14.01,2013-08-07 23:06:00,
2013-08-07 16:11:00,75.0,55.1,-100.00,North,-999,-999.0,-999.0,50,-99.99,,---,-99.99,VWS V14.01,2013-08-07 23:11:00,
2013-08-07 16:16:00,74.8,55.0,-100.00,North,-999,-999.0,-999.0,50,-99.99,,---,-99.99,VWS V14.01,2013-08-07 23:16:00,
2013-08-07 16:21:00,74.7,54.8,-100.00,North,-999,-999.0,-999.0,50,-99.99,,---,-99.99,VWS V14.01,2013-08-07 23:21:00,
2013-08-07 16:26:00,74.7,54.8,-100.00,North,-999,-999.0,-999.0,50,-99.99,,---,-99.99,VWS V14.01,2013-08-07 23:26:00,
2013-08-07 16:31:00,74.7,54.8,-100.00,North,-999,-999.0,-999.0,50,-99.99,,---,-99.99,VWS V14.01,2013-08-07 23:31:00,
2013-08-07 16:36:00,74.7,54.8,-100.00,North,-999,-999.0,-999.0,50,-99.99,,---,-99.99,VWS V14.01,2013-08-07 23:36:00,
2013-08-07 16:41:00,74.1,54.3,-100.00,North,-999,-999.0,-999.0,50,-99.99,,---,-99.99,VWS V14.01,2013-08-07 23:41:00,
2013-08-07 16:46:00,74.1,54.3,-100.00,North,-999,-999.0,-999.0,50,-99.99,,---,-99.99,VWS V14.01,2013-08-07 23:46:00,
2013-08-07 16:51:00,73.9,54.2,-100.00,North,-999,-999.0,-999.0,50,-99.99,,---,-99.99,VWS V14.01,2013-08-07 23:51:00,
2013-08-07 16:56:00,73.8,54.0,-100.00,North,-999,-999.0,-999.0,50,-99.99,,---,-99.99,VWS V14.01,2013-08-07 23:56:00,
2013-08-07 17:01:00,73.6,53.8,-100.00,North,-999,-999.0,-999.0,50,-99.99,,---,-99.99,VWS V14.01,2013-08-08 00:01:00,
2013-08-07 17:06:00,73.4,54.2,-100.00,North,-999,-999.0,-999.0,51,-99.99,,---,-99.99,VWS V14.01,2013-08-08 00:06:00,
2013-08-07 17:11:00,73.2,54.0,-100.00,North,-999,-999.0,-999.0,51,-99.99,,---,-99.99,VWS V14.01,2013-08-08 00:11:00,
2013-08-07 17:16:00,73.2,54.0,-100.00,North,-999,-999.0,-999.0,51,-99.99,,---,-99.99,VWS V14.01,2013-08-08 00:16:00,
2013-08-07 17:21:00,73.2,54.0,-100.00,North,-999,-999.0,-999.0,51,-99.99,,---,-99.99,VWS V14.01,2013-08-08 00:21:00,
2013-08-07 17:26:00,72.9,53.7,-100.00,North,-999,-999.0,-999.0,51,-99.99,,---,-99.99,VWS V14.01,2013-08-08 00:26:00,
2013-08-07 17:32:00,72.7,53.5,-100.00,North,-999,-999.0,-999.0,51,-99.99,,---,-99.99,VWS V14.01,2013-08-08 00:32:00,
2013-08-07 17:37:00,72.5,53.4,-100.00,North,-999,-999.0,-999.0,51,-99.99,,---,-99.99,VWS V14.01,2013-08-08 00:37:00,
2013-08-07 17:42:00,72.3,53.2,-100.00,North,-999,-999.0,-999.0,51,-99.99,,---,-99.99,VWS V14.01,2013-08-08 00:42:00,
2013-08-07 17:48:00,72.1,53.0,-100.00,North,-999,-999.0,-999.0,51,-99.99,,---,-99.99,VWS V14.01,2013-08-08 00:48:00,
2013-08-07 17:53:00,72.0,53.4,-100.00,North,-999,-999.0,-999.0,52,-99.99,,---,-99.99,VWS V14.01,2013-08-08 00:53:00,
2013-08-07 17:59:00,71.6,53.1,-100.00,North,-999,-999.0,-999.0,52,-99.99,,---,-99.99,VWS V14.01,2013-08-08 00:59:00,
2013-08-07 18:04:00,71.4,52.9,-100.00,North,-999,-999.0,-999.0,52,-99.99,,---,-99.99,VWS V14.01,2013-08-08 01:04:00,
2013-08-07 18:09:00,71.2,53.2,-100.00,North,-999,-999.0,-999.0,53,-99.99,,---,-99.99,VWS V14.01,2013-08-08 01:09:00,
2013-08-07 18:15:00,71.1,53.1,-100.00,North,-999,-999.0,-999.0,53,-99.99,,---,-99.99,VWS V14.01,2013-08-08 01:15:00,
2013-08-07 18:21:00,70.9,52.9,-100.00,North,-999,-999.0,-999.0,53,-99.99,,---,-99.99,VWS V14.01,2013-08-08 01:21:00,
2013-08-07 18:26:00,70.7,52.8,-100.00,North,-999,-999.0,-999.0,53,-99.99,,---,-99.99,VWS V14.01,2013-08-08 01:26:00,
2013-08-07 18:31:00,70.5,52.6,-100.00,North,-999,-999.0,-999.0,53,-99.99,,---,-99.99,VWS V14.01,2013-08-08 01:31:00,
2013-08-07 18:36:00,70.3,52.4,-100.00,North,-999,-999.0,-999.0,53,-99.99,,---,-99.99,VWS V14.01,2013-08-08 01:36:00,
2013-08-07 18:41:00,70.3,52.4,-100.00,North,-999,-999.0,-999.0,53,-99.99,,---,-99.99,VWS V14.01,2013-08-08 01:41:00,
2013-08-07 18:47:00,70.2,52.8,-100.00,North,-999,-999.0,-999.0,54,-99.99,,---,-99.99,VWS V14.01,2013-08-08 01:47:00,
2013-08-07 18:52:00,70.0,52.6,-100.00,North,-999,-999.0,-999.0,54,-99.99,,---,-99.99,VWS V14.01,2013-08-08 01:52:00,
2013-08-07 18:57:00,69.8,52.4,-100.00,North,-999,-999.0,-999.0,54,-99.99,,---,-99.99,VWS V14.01,2013-08-08 01:57:00,
2013-08-07 19:02:00,69.6,52.3,-100.00,North,-999,-999.0,-999.0,54,-99.99,,---,-99.99,VWS V14.01,2013-08-08 02:02:00,
2013-08-07 19:07:00,69.4,52.6,-100.00,North,-999,-999.0,-999.0,55,-99.99,,---,-99.99,VWS V14.01,2013-08-08 02:07:00,
2013-08-07 19:12:00,69.1,52.2,-100.00,North,-999,-999.0,-999.0,55,-99.99,,---,-99.99,VWS V14.01,2013-08-08 02:12:00,
2013-08-07 19:17:00,69.1,52.2,-100.00,North,-999,-999.0,-999.0,55,-99.99,,---,-99.99,VWS V14.01,2013-08-08 02:17:00,
2013-08-07 19:22:00,68.7,51.9,-100.00,North,-999,-999.0,-999.0,55,-99.99,,---,-99.99,VWS V14.01,2013-08-08 02:22:00,
2013-08-07 19:27:00,68.5,51.8,-100.00,North,-999,-999.0,-999.0,55,-99.99,,---,-99.99,VWS V14.01,2013-08-08 02:27:00,
2013-08-07 19:32:00,68.4,51.6,-100.00,North,-999,-999.0,-999.0,55,-99.99,,---,-99.99,VWS V14.01,2013-08-08 02:32:00,
2013-08-07 19:37:00,68.2,51.4,-100.00,North,-999,-999.0,-999.0,55,-99.99,,---,-99.99,VWS V14.01,2013-08-08 02:37:00,
2013-08-07 19:42:00,67.8,51.6,-100.00,North,-999,-999.0,-999.0,56,-99.99,,---,-99.99,VWS V14.01,2013-08-08 02:42:00,
2013-08-07 19:47:00,67.5,51.2,-100.00,North,-999,-999.0,-999.0,56,-99.99,,---,-99.99,VWS V14.01,2013-08-08 02:47:00,
2013-08-07 19:52:00,67.3,51.5,-100.00,North,-999,-999.0,-999.0,57,-99.99,,---,-99.99,VWS V14.01,2013-08-08 02:52:00,
2013-08-07 19:57:00,67.1,51.4,-100.00,North,-999,-999.0,-999.0,57,-99.99,,---,-99.99,VWS V14.01,2013-08-08 02:57:00,
2013-08-07 20:02:00,67.1,51.4,-100.00,North,-999,-999.0,-999.0,57,-99.99,,---,-99.99,VWS V14.01,2013-08-08 03:02:00,
2013-08-07 20:07:00,67.1,51.4,-100.00,North,-999,-999.0,-999.0,57,-99.99,,---,-99.99,VWS V14.01,2013-08-08 03:07:00,
2013-08-07 20:12:00,66.6,50.9,-100.00,North,-999,-999.0,-999.0,57,-99.99,,---,-99.99,VWS V14.01,2013-08-08 03:12:00,
2013-08-07 20:17:00,66.4,51.2,-100.00,North,-999,-999.0,-999.0,58,-99.99,,---,-99.99,VWS V14.01,2013-08-08 03:17:00,
2013-08-07 20:22:00,66.2,51.0,-100.00,North,-999,-999.0,-999.0,58,-99.99,,---,-99.99,VWS V14.01,2013-08-08 03:22:00,
2013-08-07 20:27:00,66.0,51.3,-100.00,North,-999,-999.0,-999.0,59,-99.99,,---,-99.99,VWS V14.01,2013-08-08 03:27:00,
2013-08-07 20:32:00,65.7,51.0,-100.00,North,-999,-999.0,-999.0,59,-99.99,,---,-99.99,VWS V14.01,2013-08-08 03:32:00,
2013-08-07 20:37:00,65.5,50.8,-100.00,North,-999,-999.0,-999.0,59,-99.99,,---,-99.99,VWS V14.01,2013-08-08 03:37:00,
2013-08-07 20:42:00,65.3,51.1,-100.00,North,-999,-999.0,-999.0,60,-99.99,,---,-99.99,VWS V14.01,2013-08-08 03:42:00,
2013-08-07 20:47:00,65.1,50.9,-100.00,North,-999,-999.0,-999.0,60,-99.99,,---,-99.99,VWS V14.01,2013-08-08 03:47:00,
2013-08-07 20:52:00,65.1,50.9,-100.00,North,-999,-999.0,-999.0,60,-99.99,,---,-99.99,VWS V14.01,2013-08-08 03:52:00,
2013-08-07 20:57:00,64.9,50.7,-100.00,North,-999,-999.0,-999.0,60,-99.99,,---,-99.99,VWS V14.01,2013-08-08 03:57:00,
2013-08-07 21:02:00,64.9,50.7,-100.00,North,-999,-999.0,-999.0,60,-99.99,,---,-99.99,VWS V14.01,2013-08-08 04:02:00,
2013-08-07 21:03:00,64.8,51.0,-100.00,North,-999,-999.0,-999.0,61,-99.99,,---,-99.99,VWS V14.01,2013-08-08 04:03:00,
2013-08-07 21:07:00,64.8,51.0,-100.00,North,-999,-999.0,-999.0,61,-99.99,,---,-99.99,VWS V14.01,2013-08-08 04:07:00,
2013-08-07 21:09:00,64.8,51.0,-100.00,North,-999,-999.0,-999.0,61,-99.99,,---,-99.99,VWS V14.01,2013-08-08 04:09:00,
2013-08-07 21:14:00,64.4,50.7,-100.00,North,-999,-999.0,-999.0,61,-99.99,,---,-99.99,VWS V14.01,2013-08-08 04:14:00,
2013-08-07 21:19:00,64.4,51.1,-100.00,North,-999,-999.0,-999.0,62,-99.99,,---,-99.99,VWS V14.01,2013-08-08 04:19:00,
2013-08-07 21:25:00,64.4,51.1,-100.00,North,-999,-999.0,-999.0,62,-99.99,,---,-99.99,VWS V14.01,2013-08-08 04:25:00,
2013-08-07 21:31:00,64.2,50.9,-100.00,North,-999,-999.0,-999.0,62,-99.99,,---,-99.99,VWS V14.01,2013-08-08 04:31:00,
2013-08-07 21:36:00,64.2,51.4,-100.00,North,-999,-999.0,-999.0,63,-99.99,,---,-99.99,VWS V14.01,2013-08-08 04:36:00,
2013-08-07 21:41:00,64.0,51.2,-100.00,North,-999,-999.0,-999.0,63,-99.99,,---,-99.99,VWS V14.01,2013-08-08 04:41:00,
2013-08-07 21:46:00,63.9,51.0,-100.00,North,-999,-999.0,-999.0,63,-99.99,,---,-99.99,VWS V14.01,2013-08-08 04:46:00,
2013-08-07 21:52:00,63.7,50.9,-100.00,North,-999,-999.0,-999.0,63,-99.99,,---,-99.99,VWS V14.01,2013-08-08 04:52:00,
2013-08-07 21:57:00,63.7,51.3,-100.00,North,-999,-999.0,-999.0,64,-99.99,,---,-99.99,VWS V14.01,2013-08-08 04:57:00,
2013-08-07 22:02:00,63.5,51.1,-100.00,North,-999,-999.0,-999.0,64,-99.99,,---,-99.99,VWS V14.01,2013-08-08 05:02:00,
2013-08-07 22:07:00,63.5,51.1,-100.00,North,-999,-999.0,-999.0,64,-99.99,,---,-99.99,VWS V14.01,2013-08-08 05:07:00,
2013-08-07 22:12:00,63.5,51.1,-100.00,North,-999,-999.0,-999.0,64,-99.99,,---,-99.99,VWS V14.01,2013-08-08 05:12:00,
2013-08-07 22:17:00,63.5,51.1,-100.00,North,-999,-999.0,-999.0,64,-99.99,,---,-99.99,VWS V14.01,2013-08-08 05:17:00,
2013-08-07 22:22:00,63.5,51.1,-100.00,North,-999,-999.0,-999.0,64,-99.99,,---,-99.99,VWS V14.01,2013-08-08 05:22:00,
2013-08-07 22:27:00,63.5,51.5,-100.00,North,-999,-999.0,-999.0,65,-99.99,,---,-99.99,VWS V14.01,2013-08-08 05:27:00,
2013-08-07 22:32:00,63.3,51.4,-100.00,North,-999,-999.0,-999.0,65,-99.99,,---,-99.99,VWS V14.01,2013-08-08 05:32:00,
2013-08-07 22:37:00,63.3,51.4,-100.00,North,-999,-999.0,-999.0,65,-99.99,,---,-99.99,VWS V14.01,2013-08-08 05:37:00,
2013-08-07 22:42:00,63.1,51.2,-100.00,North,-999,-999.0,-999.0,65,-99.99,,---,-99.99,VWS V14.01,2013-08-08 05:42:00,
2013-08-07 22:47:00,63.1,51.2,-100.00,North,-999,-999.0,-999.0,65,-99.99,,---,-99.99,VWS V14.01,2013-08-08 05:47:00,
2013-08-07 22:52:00,63.1,51.2,-100.00,North,-999,-999.0,-999.0,65,-99.99,,---,-99.99,VWS V14.01,2013-08-08 05:52:00,
2013-08-07 22:57:00,63.1,51.2,-100.00,North,-999,-999.0,-999.0,65,-99.99,,---,-99.99,VWS V14.01,2013-08-08 05:57:00,
2013-08-07 23:02:00,63.1,51.6,-100.00,North,-999,-999.0,-999.0,66,-99.99,,---,-99.99,VWS V14.01,2013-08-08 06:02:00,
2013-08-07 23:07:00,63.1,51.6,-100.00,North,-999,-999.0,-999.0,66,-99.99,,---,-99.99,VWS V14.01,2013-08-08 06:07:00,
2013-08-07 23:12:00,63.1,51.6,-100.00,North,-999,-999.0,-999.0,66,-99.99,,---,-99.99,VWS V14.01,2013-08-08 06:12:00,
2013-08-07 23:17:00,63.1,51.6,-100.00,North,-999,-999.0,-999.0,66,-99.99,,---,-99.99,VWS V14.01,2013-08-08 06:17:00,
2013-08-07 23:22:00,63.0,51.4,-100.00,North,-999,-999.0,-999.0,66,-99.99,,---,-99.99,VWS V14.01,2013-08-08 06:22:00,
2013-08-07 23:27:00,63.0,51.4,-100.00,North,-999,-999.0,-999.0,66,-99.99,,---,-99.99,VWS V14.01,2013-08-08 06:27:00,
2013-08-07 23:32:00,62.8,51.3,-100.00,North,-999,-999.0,-999.0,66,-99.99,,---,-99.99,VWS V14.01,2013-08-08 06:32:00,
2013-08-07 23:37:00,62.8,51.7,-100.00,North,-999,-999.0,-999.0,67,-99.99,,---,-99.99,VWS V14.01,2013-08-08 06:37:00,
2013-08-07 23:42:00,62.8,51.7,-100.00,North,-999,-999.0,-999.0,67,-99.99,,---,-99.99,VWS V14.01,2013-08-08 06:42:00,
2013-08-07 23:47:00,62.6,51.5,-100.00,North,-999,-999.0,-999.0,67,-99.99,,---,-99.99,VWS V14.01,2013-08-08 06:47:00,
2013-08-07 23:52:00,62.4,51.3,-100.00,North,-999,-999.0,-999.0,67,-99.99,,---,-99.99,VWS V14.01,2013-08-08 06:52:00,
2013-08-07 23:57:00,62.2,51.6,-100.00,North,-999,-999.0,-999.0,68,-99.99,,---,-99.99,VWS V14.01,2013-08-08 06:57:00,